Location: Boissi�res
(45.2500°N, 2.3667°E)
Time: 08:41:16
(UTC+00:00)

Cosmos 1602 - Pass Details

Date: 03 March 2021
Orbit: 512 x 534 km, 82.5° (Epoch: 19 April)

Event Time Altitude Azimuth Distance (km) Brightness Sun altitude
Rises 18:39:16 0° 194° (SSW) 2,647 7.5 -11.1°
Reaches altitude 10° 18:41:24 10° 197° (SSW) 1,767 6.6 -11.5°
Maximum altitude 18:45:16 67° 280° (W) 580 4.2 -12.2°
Drops below altitude 10° 18:49:11 10° 3° (N) 1,793 6.4 -12.9°
Sets 18:51:22 0° 7° (N) 2,691 7.3 -13.2°
